[[{"header":{"parameterUnit":"m.s-1","parameterCategory":1,"la1":30.2991,"la2":30.254,"lo1":-89.0895,"lo2":-89.0444,"dy":0.0017,"dx":0.0017,"nx":28,"ny":28,"refTime":"2023-10-14T21:00:00:Z","depth":0,"parameterNumber":2,"parameterNumberName":"U-component_of_WINDS"},"data":[0,0,0,0,0,0,0,0,0,0,0,0,0,0,0,0,0,0,0,0,0,0,0,0,0,0,0,0,0,0,0,0,0,0,0,0,0,0,0,0,0,0,0,0,0,0,0,0,0,0,0,0,0,0,0,0,0,0,2.1182,2.1182,0,2.1164,2.1164,2.1164,2.114,2.1139,2.1139,2.1139,2.1119,2.1119,2.1119,0,0,0,0,0,0,0,0,0,0,0,0,0,2.1195,2.1195,2.1182,2.1182,2.1182,2.1164,2.1164,2.1164,2.114,2.1139,2.1139,2.1138,2.1119,2.1119,2.1119,0,0,0,0,0,0,0,0,0,0,0,0,0,2.1184,2.1194,2.1182,2.1168,2.1166,2.1164,2.1164,2.1164,2.114,2.1139,2.1139,2.1138,2.1119,2.1119,2.1119,2.1129,0,0,2.1118,2.1118,0,0,0,0,0,0,0,0,2.1185,2.1184,2.117,2.1169,2.1167,2.1154,2.1161,2.1152,2.114,2.115,2.1139,2.1138,2.1131,2.113,2.1128,2.1128,2.1127,2.1118,2.1118,2.1118,2.1118,0,0,0,0,0,0,0,2.1186,2.1184,2.1175,2.117,2.1168,2.1162,2.116,2.1159,2.1144,2.1149,2.1147,2.1146,2.113,2.1128,2.1127,2.1127,2.1118,2.1118,2.1118,2.1117,2.1136,2.1136,0,0,0,0,0,0,2.1189,2.1185,2.1175,2.1174,2.1175,2.1162,2.116,2.1159,2.1144,2.1141,2.1146,2.1144,2.1129,2.1127,2.1126,2.1137,2.1118,2.1117,2.1117,2.1135,2.1136,2.1137,0,0,0,0,0,0,2.1189,2.1188,2.1176,2.1179,2.1177,2.1163,2.1161,2.1158,2.1156,2.1142,2.1139,2.1147,2.1128,2.1126,2.1129,2.1136,2.1117,2.1117,2.1134,2.1135,2.1136,2.116,0,0,0,0,0,0,2.1189,2.1188,2.1192,2.118,2.1177,2.1179,2.1162,2.1159,2.1156,2.1154,2.1142,2.1139,2.1127,2.1129,2.1129,2.1136,2.1117,2.1134,2.1135,2.1136,2.1158,2.1161,2.1164,0,0,0,0,0,2.119,2.1199,2.1192,2.1191,2.1182,2.118,2.1178,2.1165,2.1157,2.116,2.1151,2.1139,2.1136,2.113,2.1129,2.1136,2.1133,2.1135,2.1136,2.1157,2.1161,2.1164,0,0,0,0,0,0,2.1212,2.1197,2.1189,2.1195,2.1189,2.1176,2.118,2.117,2.1166,2.1164,2.1148,2.1145,2.1149,2.1143,2.1136,2.1145,2.1133,2.1134,2.1149,2.1153,2.1155,2.1156,2.1117,0,0,0,0,0,2.1217,2.1217,2.1204,2.121,2.1208,2.1194,2.1193,2.1184,2.1177,2.1174,2.1165,2.1158,2.1155,2.1154,2.1151,2.1158,2.1155,2.1162,2.1165,2.1168,2.1169,2.1172,2.1175,2.1141,2.1141,2.1141,0,0,2.1228,2.122,2.1221,2.1214,2.1208,2.1208,2.1192,2.1193,2.1192,2.1174,2.1175,2.1169,2.116,2.1165,2.1167,2.116,2.1178,2.117,2.1172,2.1171,2.1174,2.1177,2.118,2.1142,2.1142,2.1142,0,0,2.1248,2.1242,2.1247,2.1242,2.1234,2.1225,2.1226,2.1215,2.121,2.1212,2.1198,2.1198,2.1193,2.1188,2.1185,2.1205,2.1193,2.1204,2.1219,2.1222,2.1225,2.1227,2.1234,2.1236,2.1205,2.1206,2.1206,0,2.1262,2.1262,2.125,2.1251,2.1249,2.1233,2.1237,2.1233,2.1224,2.1223,2.1216,2.1211,2.1204,2.1208,2.1213,2.1211,2.1211,2.1205,2.1226,2.1228,2.123,2.1236,2.1238,2.1207,2.1207,2.1207,2.1206,0,2.128,2.128,2.1284,2.1277,2.1275,2.1278,2.1266,2.1266,2.1258,2.125,2.1252,2.1244,2.1239,2.124,2.1231,2.1242,2.1238,2.1229,2.1215,2.1234,2.124,2.1242,2.1209,2.1208,2.1208,2.1208,0,0,2.131,2.1298,2.13,2.1296,2.1287,2.1287,2.129,2.1286,2.1285,2.1281,2.1282,2.128,2.1272,2.1268,2.1259,2.1262,2.1278,2.1253,2.1252,2.1257,2.1289,2.1295,2.1298,2.1272,2.1272,2.1272,2.129,0,2.1328,2.1331,2.1321,2.1327,2.1327,2.1313,2.1316,2.131,2.1304,2.1303,2.1295,2.1294,2.1283,2.1281,2.1284,2.1276,2.1284,2.1275,2.1272,2.1272,2.1273,2.1301,2.1307,2.1324,2.1292,2.1292,2.1292,0,2.1347,2.1344,2.135,2.1342,2.1341,2.1344,2.1339,2.1339,2.1333,2.1328,2.1325,2.1315,2.1317,2.1306,2.1308,2.1302,2.1301,2.1297,2.1297,2.1295,2.1282,2.1298,2.1329,2.1331,2.1296,2.1295,2.1295,0,2.1368,2.1365,2.1369,2.1367,2.1357,2.1359,2.1355,2.1348,2.1347,2.1344,2.1343,2.1339,2.1337,2.1335,2.1325,2.1318,2.1328,2.1316,2.1324,2.1324,2.1325,2.1324,2.1354,2.1326,2.1326,2.1326,2.1326,0,2.1387,2.1391,2.1378,2.138,2.1384,2.1373,2.1378,2.1373,2.1367,2.1368,2.1357,2.1357,2.1344,2.1344,2.1336,2.1339,2.1338,2.1334,2.1331,2.1334,2.1334,2.1332,2.133,2.1327,2.1327,2.1327,2.1327,0,2.141,2.1401,2.1404,2.1395,2.1393,2.1397,2.1389,2.1391,2.1384,2.1385,2.1385,2.1375,2.1374,2.1364,2.136,2.1355,2.1361,2.1357,2.1363,2.1361,2.1368,2.1367,2.1396,2.1399,2.1371,2.1371,2.1371,0,2.1421,2.1424,2.1417,2.1416,2.1413,2.1413,2.1412,2.1402,2.1401,2.1396,2.1398,2.1396,2.1394,2.1393,2.1385,2.1382,2.1377,2.1388,2.1377,2.1379,2.1376,2.1376,2.1376,2.1389,2.1389,2.139,2.139,0,2.1443,2.1439,2.1438,2.1436,2.1435,2.1433,2.143,2.143,2.1419,2.1419,2.1418,2.1417,2.1414,2.1412,2.1409,2.1404,2.1395,2.1394,2.1395,2.1397,2.14,2.1398,2.1367,2.1393,2.1393,2.1392,2.1392,2.1392,2.146,2.1462,2.1457,2.1456,2.1454,2.1451,2.1452,2.1447,2.1446,2.1443,2.1438,2.1438,2.1433,2.1427,2.1424,2.1424,2.1418,2.142,2.1421,2.1421,2.1422,2.1402,2.1423,2.1423,2.1423,2.1423,2.1423,0,2.148,2.1477,2.1477,2.1473,2.1473,2.1466,2.1463,2.1462,2.1463,2.1459,2.1458,2.1457,2.1456,2.1449,2.1447,2.1448,2.1444,2.1448,2.1447,2.1446,2.1428,2.1426,2.1451,2.1451,2.1451,2.1451,2.1451,2.1451,2.1491,2.1494,2.149,2.1491,2.1488,2.1488,2.1487,2.1485,2.1482,2.1482,2.1481,2.1477,2.1472,2.147,2.1469,2.1467,2.1466,2.1471,2.1467,2.145,2.1447,2.1444,2.1443,2.1471,2.1471,2.1485,2.1485,2.1486]},{"header":{"parameterUnit":"m.s-1","parameterCategory":1,"la1":30.2991,"la2":30.254,"lo1":-89.0895,"lo2":-89.0444,"dy":0.0017,"dx":0.0017,"nx":28,"ny":28,"refTime":"2023-10-14T21:00:00:Z","depth":0,"parameterNumber":3,"parameterNumberName":"V-component_of_WINDS"},"data":[0,0,0,0,0,0,0,0,0,0,0,0,0,0,0,0,0,0,0,0,0,0,0,0,0,0,0,0,0,0,0,0,0,0,0,0,0,0,0,0,0,0,0,0,0,0,0,0,0,0,0,0,0,0,0,0,0,0,-6.1329,-6.1331,0,-6.1495,-6.1496,-6.1498,-6.1424,-6.142,-6.1416,-6.1412,-6.1575,-6.1583,-6.1591,0,0,0,0,0,0,0,0,0,0,0,0,0,-6.0943,-6.095,-6.1329,-6.1331,-6.1333,-6.1494,-6.1496,-6.1499,-6.1425,-6.142,-6.1415,-6.141,-6.1572,-6.1582,-6.1592,0,0,0,0,0,0,0,0,0,0,0,0,0,-6.1109,-6.0953,-6.1328,-6.1316,-6.1316,-6.1494,-6.1497,-6.1499,-6.1426,-6.142,-6.1414,-6.1408,-6.1569,-6.1581,-6.1593,-6.179,0,0,-6.163,-6.1635,0,0,0,0,0,0,0,0,-6.11,-6.1124,-6.1316,-6.1317,-6.1318,-6.1433,-6.142,-6.1597,-6.1427,-6.1384,-6.1412,-6.1405,-6.1532,-6.1547,-6.1591,-6.1798,-6.1805,-6.1631,-6.1639,-6.1644,-6.1647,0,0,0,0,0,0,0,-6.1089,-6.1116,-6.1394,-6.1318,-6.132,-6.13,-6.1317,-6.1453,-6.149,-6.1387,-6.1382,-6.1403,-6.1531,-6.158,-6.1594,-6.1807,-6.1631,-6.1642,-6.1649,-6.1654,-6.2185,-6.2191,0,0,0,0,0,0,-6.1078,-6.1107,-6.1389,-6.1399,-6.1192,-6.1312,-6.1331,-6.1402,-6.1488,-6.1496,-6.1409,-6.1399,-6.1562,-6.158,-6.16,-6.1837,-6.1644,-6.1655,-6.1662,-6.2178,-6.2186,-6.2193,0,0,0,0,0,0,-6.107,-6.1104,-6.1382,-6.1252,-6.1286,-6.1325,-6.1405,-6.1408,-6.1456,-6.1505,-6.151,-6.1451,-6.1558,-6.1583,-6.1744,-6.1842,-6.1661,-6.1672,-6.217,-6.218,-6.219,-6.2314,0,0,0,0,0,0,-6.1059,-6.1101,-6.1178,-6.1254,-6.1293,-6.1526,-6.1411,-6.1416,-6.1479,-6.1468,-6.1546,-6.1553,-6.1555,-6.1726,-6.1756,-6.1855,-6.1681,-6.2161,-6.2174,-6.2186,-6.2301,-6.2327,-6.2349,0,0,0,0,0,-6.1046,-6.1205,-6.1183,-6.1217,-6.1391,-6.1532,-6.1554,-6.1555,-6.1487,-6.1564,-6.1594,-6.1551,-6.1826,-6.1744,-6.1777,-6.1881,-6.2155,-6.2171,-6.2186,-6.229,-6.2322,-6.2349,0,0,0,0,0,0,-6.1137,-6.1215,-6.1191,-6.138,-6.1451,-6.1519,-6.1616,-6.1588,-6.1677,-6.1663,-6.1658,-6.1676,-6.1844,-6.1878,-6.1784,-6.2076,-6.198,-6.2003,-6.2048,-6.2079,-6.2102,-6.2091,-6.1691,0,0,0,0,0,-6.118,-6.1291,-6.1351,-6.1512,-6.1549,-6.1577,-6.1638,-6.1633,-6.1705,-6.1733,-6.1776,-6.1845,-6.1947,-6.2015,-6.2111,-6.2305,-6.2321,-6.2393,-6.2417,-6.2437,-6.2456,-6.2562,-6.2595,-6.2243,-6.2243,-6.2243,0,0,-6.1268,-6.1324,-6.1394,-6.1532,-6.1586,-6.1699,-6.1602,-6.1726,-6.1809,-6.1751,-6.1908,-6.1941,-6.2018,-6.2197,-6.2278,-6.2231,-6.2557,-6.2456,-6.2471,-6.2481,-6.2581,-6.2614,-6.2644,-6.2254,-6.2252,-6.225,0,0,-6.1488,-6.1542,-6.1682,-6.1739,-6.1822,-6.184,-6.1874,-6.1948,-6.1969,-6.2126,-6.2085,-6.2182,-6.2358,-6.2415,-6.2467,-6.2709,-6.2672,-6.274,-6.2865,-6.2968,-6.2996,-6.302,-6.3107,-6.3138,-6.2759,-6.2759,-6.276,0,-6.1587,-6.1758,-6.1757,-6.1885,-6.1947,-6.1902,-6.2043,-6.2097,-6.2207,-6.225,-6.2196,-6.2417,-6.2465,-6.2657,-6.2716,-6.276,-6.2797,-6.2731,-6.2992,-6.3017,-6.3039,-6.3122,-6.3154,-6.2767,-6.2766,-6.2766,-6.2765,0,-6.1875,-6.1994,-6.2097,-6.2208,-6.2281,-6.2414,-6.2433,-6.2506,-6.2494,-6.2517,-6.2677,-6.2734,-6.2841,-6.2886,-6.2875,-6.3077,-6.3045,-6.2992,-6.2895,-6.3081,-6.3158,-6.319,-6.2778,-6.2776,-6.2773,-6.2771,0,0,-6.2157,-6.2267,-6.2305,-6.2355,-6.2444,-6.2535,-6.2665,-6.2773,-6.2837,-6.2913,-6.3023,-6.3173,-6.3125,-6.3184,-6.3178,-6.3269,-6.3457,-6.3204,-6.3206,-6.325,-6.3683,-6.3724,-6.376,-6.3433,-6.3439,-6.3444,-6.3677,0,-6.2384,-6.2617,-6.262,-6.2833,-6.2943,-6.2902,-6.3016,-6.3082,-6.3107,-6.3201,-6.3227,-6.3335,-6.3262,-6.3298,-6.3385,-6.3416,-6.3544,-6.3399,-6.3533,-6.3538,-6.3517,-6.3801,-6.3843,-6.4061,-6.3707,-6.3712,-6.3716,0,-6.2679,-6.2769,-6.2994,-6.3068,-6.3114,-6.3217,-6.3316,-6.3408,-6.3481,-6.3493,-6.356,-6.3541,-6.3672,-6.3571,-6.3752,-6.3653,-6.3708,-6.3731,-6.3739,-6.3752,-6.3639,-6.3822,-6.413,-6.4164,-6.3764,-6.376,-6.3756,0,-6.2863,-6.304,-6.3198,-6.3241,-6.3332,-6.3405,-6.3445,-6.3513,-6.3578,-6.3663,-6.3705,-6.3804,-6.3859,-6.3935,-6.3942,-6.3868,-6.4125,-6.4024,-6.4137,-6.4137,-6.4193,-6.419,-6.4516,-6.4228,-6.4227,-6.4226,-6.4226,0,-6.3117,-6.3256,-6.3282,-6.3379,-6.3533,-6.3535,-6.3687,-6.3721,-6.3782,-6.3883,-6.3852,-6.3948,-6.3952,-6.4049,-6.4055,-6.4204,-6.4228,-6.424,-6.424,-6.4244,-6.4242,-6.428,-6.4265,-6.4235,-6.4233,-6.4231,-6.423,0,-6.3349,-6.3372,-6.3541,-6.3613,-6.3635,-6.3745,-6.3806,-6.3898,-6.3919,-6.4048,-6.4078,-6.4112,-6.4225,-6.424,-6.4371,-6.4375,-6.4554,-6.4538,-6.4531,-6.4529,-6.4641,-6.4631,-6.5003,-6.5052,-6.4732,-6.4735,-6.4737,0,-6.3509,-6.3616,-6.37,-6.3768,-6.3813,-6.3921,-6.3987,-6.3992,-6.4063,-6.4155,-6.4235,-6.4346,-6.4434,-6.4616,-6.4651,-6.4751,-6.4737,-6.4861,-6.4751,-6.4752,-6.474,-6.4734,-6.4744,-6.4882,-6.4885,-6.4888,-6.489,0,-6.3792,-6.3798,-6.3897,-6.4001,-6.4082,-6.4162,-6.4238,-6.4294,-6.4309,-6.4389,-6.4506,-6.4575,-6.471,-6.4819,-6.4918,-6.4957,-6.4927,-6.4925,-6.4956,-6.4961,-6.4953,-6.496,-6.4589,-6.4916,-6.4913,-6.4912,-6.491,-6.4909,-6.3994,-6.4087,-6.4162,-6.4272,-6.4331,-6.4403,-6.4493,-6.4527,-6.4625,-6.4737,-6.4733,-6.4862,-6.4931,-6.5062,-6.5108,-6.5207,-6.5166,-6.5211,-6.5223,-6.5235,-6.5246,-6.4937,-6.5224,-6.5224,-6.5223,-6.5222,-6.5222,0,-6.4275,-6.4322,-6.4424,-6.4533,-6.462,-6.4585,-6.4668,-6.4742,-6.4856,-6.4925,-6.5014,-6.5148,-6.5254,-6.5298,-6.5401,-6.5472,-6.5461,-6.5499,-6.5494,-6.5504,-6.5276,-6.5239,-6.5507,-6.5507,-6.5507,-6.5507,-6.5506,-6.5506,-6.4432,-6.4589,-6.4604,-6.4788,-6.4833,-6.4961,-6.5011,-6.5076,-6.5132,-6.5283,-6.5373,-6.5401,-6.546,-6.5568,-6.5663,-6.5673,-6.5712,-6.5758,-6.5761,-6.5548,-6.552,-6.5492,-6.5457,-6.5766,-6.5766,-6.598,-6.5982,-6.5984]}]]